DELTA 2 R/B - Orbit

View from above orbital plane
View from above orbital plane
View from above satellite
View from above satellite

Ground track
Ground track

The orbit data is extracted from the following two-line orbital elements,

1 27644U 03002C   13145.36945322  .00055894  00000-0  14139-2 0   729
2 27644 093.9718 353.9055 0008654 110.5012 352.2009 15.39538376570558
Epoch (UTC): 25 May 2013 08:52:00
Eccentricity: 0.0008654
inclination: 93.9718°
perigee height: 441 km
apogee height: 453 km
right ascension of ascending node: 353.9055°
argument of perigee: 110.5012°
revolutions per day: 15.39538376
mean anomaly at epoch: 352.2009°
orbit number at epoch: 57055

The dashed part of the orbit path shows where the satellite is in the earth's shadow,  

Developed and maintained by Chris Peat, Heavens-Above GmbH. Please read the updated FAQ before sending e-mail. Imprint. DLR